Weather History for Pine Bluff, AR

Change the Weather History Date:

Sunday, July 7, 2013

  Actual Average Record
Temperature  
Mean Temperature 81 °F 82 °F  
Max Temperature 91 °F 92 °F 103 °F (1998)
Min Temperature 70 °F 72 °F 56 °F (1972)
Degree Days  
Heating Degree Days 0 0  
Month to date heating degree days 0 0  
Since 1 June heating degree days 0 0  
Since 1 July heating degree days 0 0  
Cooling Degree Days 16 17  
Month to date cooling degree days 79 118  
Year to date cooling degree days 767 847  
Since 1 June cooling degree days 500 540  
Growing Degree Days 31 (Base 50)    
Moisture  
Dew Point 71 °F    
Average Humidity 71    
Maximum Humidity 93    
Minimum Humidity 49    
Precipitation  
Precipitation T in 0.13 in 1.44 in (1931)
Month to date precipitation T 0.84  
Year to date precipitation 29.42 27.62  
Snow  
Snow 0.00 in 0.00 in - ()
Month to date snowfall 0.0 0.0  
Since 1 June snowfall 0.0 0.0  
Since 1 July snowfall 0.0 0.0  
Snow Depth 0.00 in    
Sea Level Pressure  
Sea Level Pressure 30.04 in    
Wind  
Wind Speed 5 mph (SE)    
Max Wind Speed 14 mph    
Max Gust Speed 18 mph    
Visibility 10 miles    
Events      
T = Trace of Precipitation, MM = Missing Value Source: NWS Daily Summary

Daily Weather History Graph

Daily Weather History Graph

Search for Another Location

Airport:

Trip Planner

Search our weather history database for the weather conditions in past years. The results will help you decide how hot, cold, wet, or windy it might be!

Date:

Astronomy

Jul. 07, 2013 Rise Set
Actual Time 6:02 AM CDT 8:22 PM CDT
Civil Twilight 5:33 AM CDT 8:51 PM CDT
Nautical Twilight 4:58 AM CDT 9:26 PM CDT
Astronomical Twilight 4:19 AM CDT 10:05 PM CDT
Moon 5:36 AM CDT (7/7) 7:50 PM CDT (7/7)
Length of Visible Light 15h 17m
Length of Day
14h 19m
Waning Crescent, 0% of the Moon is Illuminated
Jul 7
Waning Crescent
Jul 8
New
Jul 15
First Quarter
Jul 22
Full
Jul 29
Last Quarter

Hourly Weather History & Observations

Time (CDT) Temp. Heat Index Dew Point Humidity Pressure Visibility Wind Dir Wind Speed Gust Speed Precip Events Conditions
12:53 AM 73.0 °F - 69.1 °F 87% 30.00 in 10.0 mi Calm Calm - N/A   Clear
1:53 AM 72.0 °F - 68.0 °F 87% 30.00 in 10.0 mi ESE 4.6 mph - N/A   Clear
2:53 AM 72.0 °F - 69.1 °F 91% 30.00 in 10.0 mi SE 3.5 mph - N/A   Clear
3:53 AM 72.0 °F - 69.1 °F 91% 30.01 in 10.0 mi Calm Calm - N/A   Clear
4:53 AM 71.1 °F - 69.1 °F 93% 30.01 in 10.0 mi Calm Calm - N/A   Clear
5:53 AM 71.1 °F - 69.1 °F 93% 30.02 in 8.0 mi SE 3.5 mph - N/A   Clear
6:53 AM 72.0 °F - 70.0 °F 93% 30.04 in 10.0 mi East 4.6 mph - N/A   Clear
7:51 AM 75.2 °F - 71.6 °F 89% 30.06 in 10.0 mi SE 5.8 mph - N/A   Partly Cloudy
7:53 AM 75.0 °F - 72.0 °F 90% 30.05 in 10.0 mi SE 5.8 mph - N/A   Partly Cloudy
8:53 AM 78.1 °F - 72.0 °F 81% 30.06 in 10.0 mi South 5.8 mph - N/A   Scattered Clouds
9:12 AM 80.6 °F 85.4 °F 73.4 °F 79% 30.07 in 10.0 mi Variable 4.6 mph - N/A   Mostly Cloudy
9:53 AM 80.1 °F 83.8 °F 72.0 °F 76% 30.07 in 10.0 mi SSW 4.6 mph - N/A   Mostly Cloudy
10:06 AM 80.6 °F 84.6 °F 71.6 °F 74% 30.08 in 10.0 mi South 4.6 mph - N/A   Scattered Clouds
10:53 AM 82.9 °F 88.8 °F 73.0 °F 72% 30.07 in 10.0 mi Calm Calm - N/A   Mostly Cloudy
11:03 AM 84.2 °F 89.6 °F 71.6 °F 66% 30.07 in 10.0 mi Calm Calm - N/A   Mostly Cloudy
11:10 AM 84.2 °F 89.6 °F 71.6 °F 66% 30.07 in 10.0 mi Variable 4.6 mph - N/A   Mostly Cloudy
11:23 AM 84.2 °F 89.6 °F 71.6 °F 66% 30.07 in 10.0 mi Variable 4.6 mph - N/A   Scattered Clouds
11:53 AM 86.0 °F 92.2 °F 72.0 °F 63% 30.06 in 10.0 mi Variable 3.5 mph - N/A   Overcast
12:05 PM 87.8 °F 93.8 °F 71.6 °F 58% 30.06 in 10.0 mi ESE 8.1 mph - N/A   Mostly Cloudy
12:22 PM 86.0 °F 91.8 °F 71.6 °F 62% 30.06 in 10.0 mi East 6.9 mph - N/A   Mostly Cloudy
12:53 PM 86.0 °F 90.7 °F 70.0 °F 59% 30.05 in 10.0 mi SE 4.6 mph - N/A   Mostly Cloudy
1:53 PM 89.1 °F 93.7 °F 69.1 °F 52% 30.04 in 10.0 mi South 6.9 mph - N/A   Partly Cloudy
2:53 PM 89.1 °F 95.0 °F 71.1 °F 55% 30.03 in 10.0 mi ESE 12.7 mph - 0.00 in   Mostly Cloudy
3:53 PM 90.0 °F 94.5 °F 69.1 °F 50% 30.02 in 10.0 mi Variable 6.9 mph - N/A   Scattered Clouds
4:53 PM 91.0 °F 96.6 °F 70.0 °F 50% 30.00 in 10.0 mi ESE 6.9 mph - N/A   Partly Cloudy
5:53 PM 91.0 °F 95.6 °F 69.1 °F 48% 30.00 in 10.0 mi ESE 10.4 mph - N/A   Partly Cloudy
6:53 PM 88.0 °F 92.9 °F 70.0 °F 55% 30.01 in 10.0 mi SSE 9.2 mph - N/A   Clear
7:53 PM 84.9 °F 90.1 °F 71.1 °F 63% 30.01 in 10.0 mi SSE 4.6 mph - N/A   Clear
8:53 PM 82.0 °F 86.3 °F 71.1 °F 69% 30.02 in 10.0 mi SSE 4.6 mph - N/A   Clear
9:53 PM 78.1 °F - 71.1 °F 79% 30.04 in 10.0 mi ESE 3.5 mph - N/A   Clear
10:53 PM 77.0 °F - 71.1 °F 82% 30.05 in 10.0 mi Calm Calm - N/A   Clear
11:53 PM 75.9 °F - 71.1 °F 85% 30.05 in 10.0 mi South 3.5 mph - N/A   Clear